WetterOnline ( https://www.wetteronline.de )

Wetter aktuell Vratimov

Aktuelles Wetter: Ostrava (260m)

6-stündlich | Neueste Meldungen
Ortszeit Temperatur Wetter
Di, 10.12. 1:00 2.8° C bedeckt
Mo, 09.12. 19:00 4.5° C wolkig
Mo, 09.12. 13:00 5.9° C wolkig
Mo, 09.12. 7:00 3.9° C bedeckt
Mo, 09.12. 1:00 6.0° C wolkig
So, 08.12. 19:00 7.1° C leicht bewölkt
So, 08.12. 13:00 9.1° C leicht bewölkt
So, 08.12. 7:00 4.5° C bedeckt
Ortszeit Temperatur Wetter
Di, 10.12. 6:00 3.6° C bedeckt
Di, 10.12. 5:30 3° C bedeckt
Di, 10.12. 5:00 2.9° C bewölkt
Di, 10.12. 4:30 3° C -
Di, 10.12. 4:00 3.1° C wolkig
Di, 10.12. 3:30 3° C -
Di, 10.12. 3:00 3.9° C wolkig
Di, 10.12. 2:30 3° C -
Ortszeit Relative Feuchte Sichtweite
Di, 10.12. 1:00 92% 12 km
Mo, 09.12. 19:00 88% 12 km
Mo, 09.12. 13:00 85% 12 km
Mo, 09.12. 7:00 92% 7 km
Mo, 09.12. 1:00 71% 20 km
So, 08.12. 19:00 64% 20 km
So, 08.12. 13:00 65% 30 km
So, 08.12. 7:00 87% 15 km
Ortszeit Relative Feuchte Sichtweite
Di, 10.12. 6:00 87% 12 km
Di, 10.12. 5:30 93% 9 km
Di, 10.12. 5:00 92% 12 km
Di, 10.12. 4:30 87% >10 km
Di, 10.12. 4:00 90% 12 km
Di, 10.12. 3:30 93% >10 km
Di, 10.12. 3:00 86% 12 km
Di, 10.12. 2:30 93% 9 km
Ortszeit Niederschlagsmenge Niederschlagsart
Di, 10.12. 1:00 0.0 l/m2 in 6 Std. -
Mo, 09.12. 19:00 0.0 l/m2 in 12 Std. -
Mo, 09.12. 13:00 0.0 l/m2 in 6 Std. -
Mo, 09.12. 7:00 0.1 l/m2 in 12 Std. Regen
Mo, 09.12. 1:00 0.0 l/m2 in 6 Std. -
So, 08.12. 19:00 0.0 l/m2 in 12 Std. -
So, 08.12. 13:00 0.0 l/m2 in 6 Std. -
So, 08.12. 7:00 0.0 l/m2 in 12 Std. -
Ortszeit Niederschlagsmenge Niederschlagsart
Di, 10.12. 6:00 0.0 l/m2 in 1 Std. -
Di, 10.12. 5:30 keine Meldung -
Di, 10.12. 5:00 0.0 l/m2 in 1 Std. -
Di, 10.12. 4:30 keine Meldung -
Di, 10.12. 4:00 0.0 l/m2 in 1 Std. -
Di, 10.12. 3:30 keine Meldung -
Di, 10.12. 3:00 0.0 l/m2 in 1 Std. -
Di, 10.12. 2:30 keine Meldung -
Ortszeit Stärke Spitze Richtung
km/h Bft. km/h Grad Sektor
Di, 10.12. 1:00 18 3 - 240° SW
Mo, 09.12. 19:00 7 2 - 210° SW
Mo, 09.12. 13:00 7 2 - uml. uml.
Mo, 09.12. 7:00 22 4 54 250° W
Mo, 09.12. 1:00 40 6 61 220° SW
So, 08.12. 19:00 18 3 54 230° SW
So, 08.12. 13:00 32 5 50 200° S
So, 08.12. 7:00 18 3 - 220° SW
Ortszeit Stärke Spitze Richtung
km/h Bft. km/h Grad Sektor
Di, 10.12. 6:00 11 2 - 220° SW
Di, 10.12. 5:30 13 3 - 220° SW
Di, 10.12. 5:00 14 3 - 230° SW
Di, 10.12. 4:30 17 3 - 240° SW
Di, 10.12. 4:00 18 3 - 240° SW
Di, 10.12. 3:30 17 3 - 240° SW
Di, 10.12. 3:00 18 3 - 230° SW
Di, 10.12. 2:30 19 3 - 230° SW
Ortszeit Untergrenze Bedeckung Gattung
total tief tief mittel hoch
Di, 10.12. 1:00 1500 m 8/8 7/8 Sc - -
Mo, 09.12. 19:00 3300 m 8/8 8/8 - Ns -
Mo, 09.12. 13:00 450 m 8/8 1/8 Sc Ac -
Mo, 09.12. 7:00 990 m 8/8 8/8 Sc - -
Mo, 09.12. 1:00 2700 m 8/8 8/8 - Ac -
So, 08.12. 19:00 4500 m 6/8 5/8 - Ac Ci
So, 08.12. 13:00 1320 m 5/8 3/8 Sc Ac Ci
So, 08.12. 7:00 1290 m 8/8 8/8 Sc - -
Ortszeit Bedeckungsgrad in Achtel und Wolkenuntergrenze
Di, 10.12. 6:00 8(1290m)
Di, 10.12. 5:30 8(1320m)
Di, 10.12. 5:00 7(1320m)
Di, 10.12. 4:30 keine Wolken(unter 1500 m)
Di, 10.12. 4:00 2(1800m) 5(4500m)
Di, 10.12. 3:30 keine Wolken(unter 1500 m)
Di, 10.12. 3:00 2(1500m) 8(4800m)
Di, 10.12. 2:30 keine Wolken(unter 1500 m)
Ortszeit Luftdruck NN (hPa) Tendenz (hPa in 3 Std.)
Di, 10.12. 1:00 1011 + 1,6
Mo, 09.12. 19:00 1008 + 0,8
Mo, 09.12. 13:00 1007 - 0,5
Mo, 09.12. 7:00 1007 + 0,6
Mo, 09.12. 1:00 1005 - 2,2
So, 08.12. 19:00 1009 0,0
So, 08.12. 13:00 1011 - 3,0
So, 08.12. 7:00 1016 - 0,5
Ortszeit Luftdruck NN (hPa) Tendenz (hPa in 3 Std.)
Di, 10.12. 6:00 1015 + 3,0
Di, 10.12. 5:30 1013 keine Meldung
Di, 10.12. 5:00 1014 + 2,4
Di, 10.12. 4:30 1012 keine Meldung
Di, 10.12. 4:00 1013 + 2,0
Di, 10.12. 3:30 1011 keine Meldung
Di, 10.12. 3:00 1012 + 1,7
Di, 10.12. 2:30 1010 keine Meldung
Ortszeit Schneehöhe (cm)
Di, 10.12. 1:00 -
Mo, 09.12. 19:00 -
Mo, 09.12. 13:00 -
Mo, 09.12. 7:00 -
Mo, 09.12. 1:00 -
So, 08.12. 19:00 0
So, 08.12. 13:00 -
So, 08.12. 7:00 0
Ortszeit Schneehöhe (cm)
Di, 10.12. 6:00 -
Di, 10.12. 5:30 -
Di, 10.12. 5:00 -
Di, 10.12. 4:30 -
Di, 10.12. 4:00 -
Di, 10.12. 3:30 -
Di, 10.12. 3:00 -
Di, 10.12. 2:30 -
Link zu dieser Seite / Seite empfehlen

Das Wetter in ...